Tracking 20083 objects as of 12-Dec-2019
HD Live streaming from Space Station
objects crossing your sky now

COSMOS 2251 DEB

Track COSMOS 2251 DEB now!
10-day predictions


NORAD ID: 33823
Int'l Code: 1993-036BQ
Perigee: 762.6 km
Apogee: 1,083.5 km
Inclination: 73.8 °
Period: 103.3 minutes
Semi major axis: 7294 km
RCS: 0.0432 m2 (small)
Launch date: June 16, 1993
Source: Commonwealth of Independent States (former USSR) (CIS)
Launch site: PLESETSK MISSILE AND SPACE COMPLEX (PKMTR)

Note: This is SATELLITE DEBRIS
aabbcc
Your satellite tracking list
Your tracking list is empty




NASA's NSSDC Master Catalog

Two Line Element Set (TLE):
1 33823U 93036BQ  19345.81444838  .00000255  00000-0  17402-3 0  9991
2 33823  73.8142   9.5443 0220015 152.7899  20.3725 13.93634201550283
Source of the keplerian elements: AFSPC